Showing default

OPS 9341 (IDSCS 19), 3284

Orbit data source: Space-Track

OPS 9341 (IDSCS 19), 3284 is a payload satellite owned by SAMSO (US) in GEO that was launched on Thu, 13 Jun 1968 UTC via a TITAN IIIC launch vehicle from the Air Force Eastern Test Range (AFETR). Payload-class satellites include a variety of spacecraft equipped with specific instruments for various scientific and technological missions. These include communications satellites like Starlink; space stations such as the ISS; scientific satellites like the Hubble; Earth observation satellites from companies like Planet Labs, Umbra, and HawkEye 360; GPS; miniature CubeSats for education and research; and military/defense satellites.

Loading next visibility...
Identifier
3284, 1968-050A
Orbit
GEO
Country
Flag of USUS
Related business
Manufacturer
Philco-Ford
Mission
Non-operational Defense Communications
Bus & Motor
IDCSP, Unknown motor
Mass
45 kg wet, 45 kg dry
Launch date (UTC)
1968-06-13 (57 years ago)
Launch vehicle
TITAN IIIC
Launch site
Air Force Eastern Test Range (AFETR)
Object type
Payload
Rocket body
Debris
Shape & HBR
Poly, 0.5 m
Radar Cross Section
0.926 m², Medium (>0.1 m² and < 1m²)

Expand to show TLE details & history
Last TLE update: 1 day ago

TLE from 1 day ago
0 OPS 9341 (IDSCS 19)
1 03284U 68050A   25258.71086398 -.00000069  00000-0  00000-0 0  9996
2 03284   6.6496  54.1762 0015087 145.4196 224.7328  1.07853722 47257
Epoch: 2025-09-15T17:03Z
TLE epoch observation values (Epoch: 2025-09-15T17:03:38.647Z)
Latitude
1.14049°
Longitude
173.30935°
Altitude
33,828.991 km
Speed
3.147 km/s
True Right ascension
04h 16m 31s
True Declination
1° 08' 21"
Sunlit
Object was in daylight at epoch
Visualization orbit readout
Latitude
Unknown
Longitude
Unknown
Altitude
Unknown
Speed
Unknown
Apparent Right ascension
Unknown
Apparent Declination
Unknown
Sunlit
N/A
Visualization observer readout
Local Sidereal Time
11:33:55
Azimuth
Unknown
Elevation
Unknown
Doppler factor
Unknown
Orbital elements
Apogee altitude
33,848.312 km
Perigee altitude
33,727.115 km
Semi-major axis
40,165.851 km
Eccentricity
0.00151
Inclination
6.6496°
RAAN
54.1762°
Arg. of periapsis
145.4196°
True anomaly
224.61129°
Mean anomaly
224.7328°
Eccentric anomaly
224.67203°
Mean motion
0.26962 °/min
Orbital period
1,335.2 mins
BSTAR
0
Loading maneuver chart data...
Computing Atmospheric mass density...
Loading historical data...
Loading historical data...
Loading historical data...
Loading historical data...
Loading historical data...
Loading historical data...
Loading historical data...

Documentation

Showing up to 5 results
|